RH
76 92 91 96 96 96 95 71 91 95 94 93 98 97 98 88 93 10 6 9 24 67 76 76 91 68 60 84 63 53 42 32 20 17 15 12 10 12 12 17 23 30 25 27 31 30 31
69 79 89 79 76 87 89 86 72 82 79 96 97 97 94 78 87 26 6 6 28 98 88 76 69 61 59 80 60 49 31 25 21 18 14 12 13 14 12 12 14 13 12 13 16 18 21
99 61 63 64 69 78 85 84 76 74 72 94 98 92 82 51 58 31 6 38 42 56 70 75 65 68 80 67 55 34 26 27 22 17 14 14 15 16 15 16 15 16 15 15 16 18 19
60 46 76 63 85 92 83 86 87 74 62 78 93 92 55 31 66 39 14 54 67 69 83 92 71 74 71 54 33 23 30 30 23 19 17 15 16 16 16 18 18 18 21 19 22 24 26
83 49 69 78 83 75 78 91 96 89 85 89 88 72 24 34 50 38 76 79 94 84 99 81 82 67 38 29 26 34 36 34 34 30 27 24 23 25 25 26 31 45 51 54 52 47 46
23 29 59 74 67 62 80 96 95 91 90 80 68 56 47 84 56 98 87 99 98 83 95 82 56 38 32 33 45 51 51 51 53 58 59 55 56 58 57 57 67 74 74 69 65 50 60
24 38 51 46 50 55 59 74 72 72 76 75 62 48 78 87 94 93 91 85 88 99 75 54 42 38 44 56 55 59 60 61 69 69 70 70 66 64 70 77 78 77 78 73 43 43 76
34 31 39 43 43 55 54 53 59 60 71 70 83 42 36 97 92 77 99 100 91 74 50 50 46 50 58 58 65 71 71 78 77 75 70 68 60 71 74 75 74 80 84 57 46 58 82
31 35 36 26 24 30 44 40 35 58 57 92 80 39 30 94 97 99 93 89 80 39 60 80 79 71 76 82 85 81 74 68 67 62 89 93 70 57 57 53 69 78 90 76 90 87 76
22 29 25 24 25 26 28 25 27 32 47 67 91 57 12 24 93 95 91 74 44 42 57 80 78 87 86 86 88 84 76 76 74 68 73 58 69 66 67 69 88 99 82 98 97 99 97
18 17 17 19 22 24 25 27 30 50 57 70 78 65 37 20 60 87 72 44 41 40 85 86 88 83 94 87 84 92 80 78 85 83 88 82 85 94 95 83 98 90 100 98 93 100 100
19 20 18 17 18 24 27 30 35 41 56 38 46 60 58 69 70 71 43 43 42 40 82 84 90 95 94 90 87 85 86 94 97 99 99 81 85 86 86 93 100 100 100 100 99 100 99
15 19 22 22 23 23 23 21 18 28 43 45 60 65 71 75 68 72 42 44 48 68 75 81 90 91 91 89 84 81 81 89 94 96 93 85 74 77 82 94 94 99 99 94 95 96 92
13 17 15 12 14 14 14 16 38 61 75 73 60 64 69 70 67 48 41 50 60 78 80 77 81 78 82 91 89 85 86 93 88 94 99 94 56 63 80 86 97 99 99 98 98 96 91
6 18 16 21 18 16 20 25 36 56 64 64 62 65 50 41 30 35 43 59 78 79 74 80 78 77 78 81 83 83 92 87 72 89 92 83 56 63 64 77 89 96 98 97 100 99 93
22 8 14 28 37 47 50 54 60 62 61 41 38 44 40 30 27 38 52 64 78 76 77 73 72 71 78 79 80 84 82 75 76 75 85 86 77 53 58 61 74 86 95 96 97 97 93
49 41 18 12 26 48 57 60 62 60 55 40 31 29 27 33 45 46 48 59 66 64 66 68 68 68 72 76 78 79 64 65 72 78 85 86 85 53 61 57 71 78 82 83 87 86 93
49 53 49 47 24 27 47 57 54 54 51 36 27 32 34 42 53 43 45 45 48 53 56 55 58 61 65 63 55 57 59 59 59 66 79 80 78 66 51 60 64 73 76 75 70 68 74
50 52 56 51 49 55 53 53 50 46 43 34 26 33 40 46 42 33 37 39 39 42 46 51 54 56 64 67 60 45 52 58 58 62 66 65 65 55 31 37 48 68 77 73 70 65 72
28 51 54 56 57 51 50 52 45 44 28 31 22 28 37 34 27 27 30 35 37 40 41 40 40 45 46 49 45 42 47 50 52 54 56 55 54 55 55 52 55 52 62 67 74 66 59
15 32 48 49 53 58 57 54 49 37 32 23 21 22 25 32 28 22 23 29 34 32 38 32 29 37 37 37 43 36 34 37 39 49 50 50 51 48 44 46 47 44 55 50 53 54 55
19 11 35 47 44 45 56 55 37 19 24 25 24 20 16 23 30 25 18 19 21 23 26 30 29 33 34 31 28 30 32 33 34 38 38 40 45 38 32 34 37 36 38 46 53 51 49
43 23 8 18 43 49 44 51 56 43 16 15 17 18 19 17 20 26 25 22 19 19 23 22 22 26 34 30 26 23 26 31 33 32 33 35 36 39 33 35 25 23 27 32 35 42 49
52 40 24 10 7 21 34 42 50 56 54 17 14 16 16 16 15 15 16 18 21 20 20 20 21 22 36 32 29 27 26 27 25 30 31 36 39 37 31 24 36 12 12 18 19 22 25
54 50 39 25 12 7 17 28 43 53 58 58 28 14 15 16 15 15 16 15 14 15 18 20 18 18 29 35 32 26 29 30 30 32 32 32 40 35 33 32 14 8 10 11 13 8 8
61 54 50 39 26 13 7 22 31 47 56 62 51 26 13 15 15 14 14 15 16 16 15 17 19 19 23 28 32 31 24 28 27 30 31 35 32 37 37 37 30 12 11 10 11 9 7
88 58 55 48 38 25 13 7 34 41 52 61 56 45 21 12 14 16 18 17 16 17 20 17 17 19 25 32 31 35 36 39 37 35 34 40 43 41 38 32 13 12 16 12 13 8 8
99 89 57 55 47 36 20 7 16 37 46 56 60 57 40 24 16 12 12 13 15 16 19 28 31 23 22 27 40 46 55 47 38 33 33 31 29 29 40 38 27 14 15 12 10 8 6
100 98 80 59 51 44 27 9 11 38 40 49 52 60 55 36 29 27 16 13 12 16 20 23 27 33 35 35 36 34 42 43 42 38 32 30 27 31 29 18 15 15 14 14 13 11 10
Wind_Speed
39 37 34 31 24 16 11 12 14 16 18 22 17 15 13 12 19 9 19 29 32 27 27 22 14 15 13 10 7 7 8 9 8 6 6 6 6 7 11 13 18 24 26 28 31 32 33
41 34 30 27 25 18 10 10 11 11 14 6 15 14 11 9 13 13 15 21 29 26 18 23 17 12 12 13 10 7 6 6 7 5 5 5 4 4 6 8 12 15 16 18 23 25 29
40 29 27 23 23 18 11 7 6 7 5 5 7 6 6 6 7 16 16 18 30 31 20 16 14 10 7 10 8 6 3 6 6 5 6 6 7 8 9 10 13 16 21 21 21 24 29
29 27 25 22 19 16 11 5 6 2 7 5 7 6 3 10 13 20 20 23 24 24 20 13 13 10 6 6 6 5 4 5 5 5 6 8 10 10 11 13 17 20 24 26 22 21 25
30 31 28 22 21 16 13 9 10 10 11 12 9 7 8 15 19 22 24 23 23 25 23 15 9 7 6 6 5 3 2 2 3 5 7 8 10 10 12 14 16 14 18 23 27 19 21
28 29 28 25 20 17 15 18 20 18 14 11 11 9 14 22 20 30 25 28 24 15 15 14 9 7 7 7 5 3 1 0 3 5 7 8 8 9 11 9 6 12 21 25 25 18 24
31 29 27 29 22 16 14 15 18 18 16 12 10 11 18 23 22 25 24 20 20 17 14 8 10 8 10 7 4 1 1 3 4 6 7 7 7 6 8 13 14 17 21 25 24 18 23
31 29 29 29 29 24 19 18 15 13 16 17 15 15 14 18 19 22 19 18 18 19 20 16 11 10 9 6 4 1 1 3 6 9 8 9 8 8 10 13 17 18 21 22 17 13 24
28 27 25 25 26 25 26 22 21 18 17 21 17 15 14 12 25 20 21 19 17 20 20 17 13 12 11 9 7 6 3 3 5 7 6 7 6 7 8 10 13 14 16 13 19 26 23
27 27 25 23 25 26 26 23 20 19 21 18 13 13 14 11 21 23 26 24 25 17 13 10 10 11 12 10 11 13 9 9 10 8 9 5 7 7 6 7 9 13 10 16 21 17 13
27 27 25 24 24 26 26 26 23 24 25 25 23 18 14 13 17 20 24 26 16 7 5 6 9 8 5 9 7 12 11 6 6 6 7 6 8 10 14 14 12 13 15 20 17 21 18
25 25 26 25 24 23 24 26 25 23 19 19 19 23 24 20 19 25 25 16 6 4 3 6 9 11 12 11 9 11 11 9 5 7 8 8 11 10 13 17 16 18 21 18 10 8 4
25 23 26 25 24 23 23 24 24 23 20 19 17 16 15 16 19 23 20 6 4 8 8 9 10 9 9 8 9 10 8 9 8 9 11 8 12 10 14 19 12 16 17 4 3 2 5
22 21 21 22 21 20 20 20 22 21 19 16 18 16 11 16 19 20 8 5 9 7 9 12 8 7 5 4 5 6 7 8 5 5 8 6 5 9 13 16 16 11 10 4 3 2 4
21 18 18 17 19 18 17 16 15 15 16 19 20 20 20 17 17 6 3 4 8 12 14 11 7 6 3 3 1 0 3 6 5 5 4 5 4 10 12 14 15 13 13 8 5 6 3
20 18 14 14 15 16 16 14 13 9 10 17 19 17 13 10 4 5 13 16 12 14 10 5 3 3 2 2 0 2 4 4 3 3 5 6 8 7 10 11 14 11 11 5 6 4 3
21 18 14 11 8 9 13 14 12 13 13 14 15 11 6 8 14 14 20 20 15 11 7 5 5 2 0 1 1 1 4 2 4 2 4 7 6 7 6 8 13 15 8 4 5 3 2
18 17 16 13 11 9 7 10 10 8 8 11 11 12 12 12 19 16 14 12 11 8 7 5 2 1 1 2 3 1 3 3 4 4 6 8 8 13 9 4 10 11 20 3 3 3 5
16 15 14 14 11 9 10 12 10 8 5 8 11 12 13 14 9 12 12 12 10 7 5 4 3 1 1 1 1 1 1 4 5 5 6 9 7 10 6 3 5 7 19 3 4 4 0
13 14 14 13 13 11 10 11 12 8 3 9 11 9 13 10 10 11 9 7 9 8 4 4 3 1 1 2 2 2 3 3 6 6 6 5 6 5 2 6 12 14 16 10 6 4 3
15 11 11 12 12 12 12 11 10 9 3 6 7 9 12 15 13 11 7 9 6 2 3 1 2 1 2 2 4 4 4 4 3 4 6 6 5 8 8 8 10 12 14 10 4 5 3
19 13 11 10 13 13 12 14 11 9 6 3 7 8 8 13 14 13 11 8 5 4 3 2 1 2 2 1 2 3 3 3 2 3 5 7 6 13 13 11 13 15 8 6 6 7 8
18 18 14 12 12 13 13 10 10 9 7 5 3 4 8 12 14 12 12 10 6 4 5 4 4 4 3 3 4 5 5 5 5 5 4 5 7 11 5 11 16 14 8 5 4 5 5
17 18 18 16 14 14 14 12 9 6 7 8 5 4 7 9 13 15 11 12 10 8 8 8 7 6 5 7 8 10 10 9 10 8 7 6 7 7 9 11 3 4 6 7 9 9 8
17 18 18 17 16 15 14 14 11 6 2 5 8 8 8 9 10 11 13 12 14 14 11 9 10 9 9 9 10 8 6 7 7 10 10 9 7 5 4 7 17 15 12 11 10 8 10
18 18 19 16 17 16 15 13 13 10 7 6 7 7 8 7 9 10 13 13 12 13 14 12 10 10 10 10 8 4 4 5 3 5 8 10 10 10 4 4 5 5 5 6 8 15 9
19 17 20 20 17 17 17 15 13 13 10 10 10 9 6 5 5 8 10 13 14 13 13 12 13 12 11 11 9 5 4 6 4 4 5 8 10 15 16 9 10 12 8 6 5 5 6
23 18 19 20 18 17 18 16 15 14 14 11 12 12 11 9 8 5 6 10 13 14 13 12 11 12 12 9 5 5 5 5 7 8 10 7 5 5 5 8 7 7 8 11 8 10 9
26 22 18 20 19 17 16 16 15 17 16 14 13 14 15 15 10 11 9 9 9 13 15 16 15 11 6 5 6 5 8 11 14 8 9 7 8 8 9 9 14 15 14 15 16 16 13
Wind_Direction
343 339 336 337 329 318 315 297 271 269 263 246 229 237 243 261 231 230 213 211 206 212 219 224 226 234 238 259 298 276 273 276 259 248 251 249 255 258 251 255 255 260 263 264 268 269 270
347 347 347 347 346 334 310 293 281 276 267 285 189 202 233 257 220 194 196 199 188 198 203 216 229 232 238 257 273 265 264 259 260 259 250 258 248 245 260 260 255 268 271 272 271 274 273
359 355 352 351 358 9 356 319 308 284 251 274 159 207 223 220 205 178 176 172 180 193 202 207 216 217 238 251 245 243 240 264 261 242 235 246 252 258 267 276 271 272 277 277 279 281 279
354 355 358 1 1 1 3 10 325 261 204 204 181 190 199 179 159 169 168 163 174 187 194 207 212 220 228 210 213 217 221 240 259 259 258 260 264 265 270 274 275 281 285 289 294 284 286
359 9 11 15 12 21 38 38 61 86 92 142 137 158 151 149 158 163 158 158 172 181 173 191 178 172 175 181 182 191 197 229 273 282 278 271 269 276 276 275 287 285 280 288 298 298 291
9 6 16 29 24 44 50 74 78 83 93 111 126 132 141 136 147 154 154 165 151 135 137 140 146 150 155 143 133 119 103 312 272 274 282 295 303 297 299 293 280 288 298 298 293 306 299
17 22 34 42 48 51 55 71 77 82 88 88 105 125 145 147 158 151 143 154 161 143 127 129 143 139 129 124 121 140 302 308 310 327 331 312 304 292 262 267 278 291 294 295 308 315 298
28 44 53 55 55 62 64 73 82 91 83 81 94 107 141 144 136 144 137 149 147 138 123 114 115 115 117 126 113 83 26 4 343 330 314 307 306 278 276 275 281 281 291 304 320 331 309
37 45 51 56 56 60 72 74 70 79 86 96 82 102 133 133 136 138 139 146 139 133 111 100 98 99 102 89 73 51 33 15 11 358 344 312 336 312 292 295 291 297 290 327 314 331 326
39 51 53 57 58 60 64 65 69 75 83 88 76 103 121 135 126 133 128 139 136 125 94 82 86 105 99 87 60 45 49 41 30 11 360 16 356 345 328 326 309 304 333 326 317 316 304
43 53 58 58 59 69 73 75 80 92 81 86 71 84 94 117 122 129 134 140 134 113 67 71 90 118 82 80 69 46 45 37 14 3 341 340 358 335 340 338 317 308 310 309 308 296 298
35 52 61 65 68 70 80 87 88 90 87 78 79 90 98 106 129 140 139 134 127 87 62 108 109 108 94 81 72 67 46 26 14 333 347 356 5 346 356 355 311 308 299 307 301 261 259
34 44 64 68 73 76 78 87 92 95 91 93 98 108 113 123 141 145 144 111 62 62 117 114 111 105 105 97 75 64 37 31 13 346 356 3 20 22 11 360 16 353 310 312 315 335 249
31 36 52 71 77 78 79 84 91 92 92 95 114 113 95 110 132 139 129 57 65 102 115 126 113 96 96 89 74 49 21 14 9 357 304 340 9 15 2 2 344 3 7 325 307 309 298
32 33 40 54 68 76 81 83 77 81 74 92 111 112 119 124 135 127 88 69 107 112 119 118 107 79 78 69 109 22 346 344 360 4 315 312 323 17 359 350 4 349 348 331 274 275 332
22 30 32 39 50 62 71 74 80 68 80 108 102 114 123 130 131 129 128 109 114 122 124 115 89 92 122 55 236 235 317 347 339 344 326 320 309 357 357 16 23 4 6 325 338 333 355
16 16 26 29 30 41 52 60 58 64 99 122 103 107 132 118 119 127 125 119 124 123 107 79 81 108 105 343 348 282 351 15 13 358 320 325 301 338 346 359 17 22 4 314 316 336 341
11 12 11 23 28 16 9 26 32 61 106 127 95 103 119 127 126 124 118 118 125 127 117 113 108 151 11 9 359 321 35 32 8 309 326 321 303 308 317 345 25 27 8 314 300 328 65
6 6 4 7 16 22 7 1 22 37 111 142 121 121 132 139 137 126 122 123 123 127 133 156 132 106 44 3 318 348 339 12 6 7 351 346 336 323 332 332 5 11 8 9 170 217 199
351 2 0 357 357 7 22 13 1 10 67 152 153 145 153 158 151 141 135 135 138 140 124 111 131 135 17 3 344 307 302 326 4 0 352 352 356 4 304 322 330 347 15 36 185 231 165
346 339 357 1 5 353 353 1 3 1 343 180 197 172 166 173 173 166 161 163 160 177 162 143 82 12 321 311 304 315 311 311 326 1 356 343 322 328 320 314 323 334 354 24 115 147 195
342 339 321 334 349 2 355 353 2 7 8 272 197 217 241 190 188 187 181 181 186 173 180 196 203 332 337 319 316 314 314 300 315 316 328 325 309 318 318 305 307 302 308 348 41 108 153
335 332 339 316 309 320 341 341 359 346 358 353 288 225 208 224 213 211 211 211 213 239 237 247 273 291 282 281 295 298 286 273 274 284 288 298 306 316 281 303 307 295 271 268 269 256 228
329 325 326 337 330 303 306 316 322 359 330 329 335 283 238 222 228 231 242 238 237 247 261 285 274 272 290 286 293 288 276 271 266 264 268 271 293 299 291 319 342 299 289 277 275 261 249
318 321 316 327 333 332 297 298 300 293 306 298 321 314 283 258 235 237 245 254 257 259 258 268 280 282 298 306 321 318 303 284 278 252 259 261 273 283 280 288 286 283 268 260 278 274 268
310 312 313 312 323 329 318 291 283 283 279 279 283 300 309 290 258 252 245 244 253 259 260 260 259 264 280 300 318 300 312 311 297 293 263 254 256 250 278 280 248 291 276 275 282 293 250
312 301 303 308 313 317 321 300 280 276 264 254 261 268 276 284 280 285 267 248 245 250 256 260 263 265 266 274 276 277 262 280 288 285 289 277 272 255 251 254 273 269 254 251 229 293 291
293 304 296 298 304 309 315 312 269 266 266 254 259 265 271 275 278 267 284 274 263 252 250 256 274 268 267 266 269 265 271 268 267 269 283 268 270 269 244 240 286 296 252 234 279 290 287
283 290 289 285 291 298 306 310 269 265 261 261 260 269 270 276 282 278 270 267 259 254 257 255 253 258 258 265 261 276 276 288 285 286 280 268 243 266 257 264 284 296 281 280 278 268 272